Location: London
(51.5074°N, 0.1278°W)
Time: 07:30:05
(UTC+00:00)

TIGRISAT - Pass Details

Date: 07 October 2020
Orbit: 606 x 688 km, 97.7° (Epoch: 30 October)

Event Time Altitude Azimuth Distance (km) Brightness Sun altitude
Rises 20:49:15 0° 17° (NNE) 3,006 ? -23.1°
Reaches altitude 10° 20:51:31 10° 22° (NNE) 2,101 ? -23.5°
Enters shadow 20:53:21 23° 31° (NNE) 1,418 ? -23.7°
